Kindersley Airport
CYKY : rendu visible

Aérodrome :











RETROUVEZ-NOUS SUR...

 
LOGIN :

S'inscrire | Disclaimer

   EN    FR    IT 

 









Légende :    VFR   VFR Marginal   IFR   IFR Intensif   IFR Très Intensif
Visi : 
Plafond : 
>= 8 km
>= 3000ft
5 à 8 km
1000 à 3000 ft
1500m à 5 km
500 à 1000 ft
800 à 1500m
200 à 500 ft
< 800m
< 200 ft
Symboles :   Orages  Brouillard  Fortes neiges  Fortes précipitations  Vent > 20 kt






- Altitude de l'aérodrome : 2277 ft
- Code IATA : YKY


CYKY - Kindersley

DERNIER METAR :
  • 291700Z 11011G21KT 070V150 15SM FEW080 BKN100 18/02 A3021 RMK AC2AC4 SLP235 DENSITY ALT 2800FT

METARs EXPIRÉS :
  • 291600Z 09015G23KT 15SM FEW070 BKN100 BKN240 17/03 A3021 RMK AC2AC3CI2 SLP235 DENSITY ALT 2800FT
  • 291500Z 08014KT 15SM SCT070 BKN100 BKN240 14/04 A3022 RMK AC3AC3CI2 SLP240 DENSITY ALT 2400FT

TAF N/A
FIR CZWG / Amérique du Nord



MET'MAP, la Météo Aéronautique d'un coup d'oeil ! - Copyright ORBIFLY Décembre 2007 - Disclaimer

ORBIFLY MET'MAP TEAM :

Programmation & Développement : Alexandra Zaïnal
Sur une idée originale de : Baudouin d'Aumeries
Assistance à la programmation : Marc-Olivier Méhu
Soutien technique & logistique : Manuel Goepfert

Contact : metmap@orbifly.com




SOURCES & CREDITS :

   NOAA       Earth
Advisory